Regional Weather Roundup
Issued by NWS

Home | Current Version | Previous Version | Graphics & Text | Print | Product List | Glossary On
Versions: 1 2 3 4 5 6 7 8 9 10 11 12 13 14 15 16 17 18 19 20 21 22 23 24 25 26 27 28 29 30 31 32 33 34 35 36 37 38 39 40 41 42 43 44 45 46 47 48 49 50
576
ASUS43 KLSX 092107
RWRMO

WEATHER SUMMARY FOR MISSOURI
NATIONAL WEATHER SERVICE SPRINGFIELD MO
300 PM CST TUE FEB 09 2016

NOTE: "FAIR" INDICATES FEW OR NO CLOUDS BELOW 12,000 FEET WITH NO
       SIGNIFICANT WEATHER AND/OR OBSTRUCTIONS TO VISIBILITY.
       CURRENT SKY AND/OR WEATHER CONDITIONS ARE NOT AVAILABLE FOR
       CHILLICOTHE AND FARMINGTON.

MOZ001>031-035>038-043-044-053-054-092200-
...NORTHERN AND WESTERN MISSOURI...

CITY           SKY/WX    TMP DP  RH WIND       PRES   REMARKS
KANSAS CTY INT MOSUNNY   28   8  43 NW20G28   30.18R WCI  15
KANSAS C DTWN  SUNNY     30   8  39 NW20G29   30.19S WCI  17
LEE`S SUMMIT   SUNNY     28   9  44 NW21G33   30.18R WCI  15
ST JOSEPH      SUNNY     28   5  37 NW23G30   30.21F WCI  14
CHILLICOTHE      N/A     27  11  51 NW12G24   30.15F WCI  17
KIRKSVILLE     FLURRIES  25   8  48 NW15G26   30.07S WCI  13

$$
MOZ066>068-077>081-088>096-101>105-092200-
...SOUTHWEST MISSOURI...

CITY           SKY/WX    TMP DP  RH WIND       PRES   REMARKS
SPRINGFIELD    SUNNY     33   9  36 NW22G28   30.11S WCI  21
JOPLIN         SUNNY     37   6  27 NW21G28   30.18S WCI  26

$$
MOZ032>034-039>042-045>050-055>058-069>072-092200-
...CENTRAL MISSOURI...

CITY           SKY/WX    TMP DP  RH WIND       PRES   REMARKS
COLUMBIA       PTSUNNY   26   9  48 NW23G30   30.08S WCI  11
JEFFERSON CITY PTSUNNY   27   9  46 NW21G32   30.11S WCI  13
ROLLA          CLOUDY    24  11  57 NW16G26   30.05R WCI  11
SEDALIA        PTSUNNY   29  13  51 NW20G26   30.15R WCI  16
WHITEMAN AFB   MOSUNNY   29  10  45 NW18G26   30.14R WCI  16
WARRENSBURG    MOSUNNY   30  10  43 NW14G24   30.17S WCI  20
OSAGE BEACH    PTSUNNY   28   9  43 NW14G22   30.11R WCI  17

$$
MOZ051-052-059>065-092200-
...EAST CENTRAL MISSOURI...

CITY           SKY/WX    TMP DP  RH WIND       PRES   REMARKS
ST LOUIS INTL  FLURRIES  25  12  58 NW14G25   30.03R WCI  13
SPIRIT OF STL  CLOUDY    26  13  57 NW16G25   30.04S WCI  14
ST CHARLES     CLOUDY    23  13  65 NW16      30.04S WCI  10

$$
MOZ072>076-082>087-097>100-106>115-092200-
...SOUTH CENTRAL AND SOUTHEAST MISSOURI...

CITY           SKY/WX    TMP DP  RH WIND       PRES   REMARKS
CAPE GIRARDEAU FLURRIES  26  14  60 NW16G25   30.05R WCI  14
FARMINGTON     FLURRIES  25  13  60 NW17G23   30.02R WCI  12
POPLAR BLUFF   CLOUDY    31  11  43 NW17G30   30.05R WCI  19
WEST PLAINS    MOSUNNY   32   7  35 NW20G26   30.05S WCI  20

$$



USA.gov is the U.S. government's official web portal to all federal, state and local government web resources and services.